Aeroporto :
LOGIN :

Iscrizione | Disclaimer

   EN    FR    IT 

 










Sommario :    VFR   VFR Marginale   IFR   IFR Intensivo   IFR Molto Intensivo
Visibilità : 
Base nubi : 
>= 8 km
>= 3000ft
5 / 8 km
1000 / 3000 ft
1500m / 5 km
500 / 1000 ft
800 / 1500m
200 / 500 ft
< 800m
< 200 ft
Simboli :   Temporali  Nebbia  Neve Forte  Precipitazioni Forti  Vento > 20 kt
SIGMETs :   Varie  Temporali  Ghiacco  Turbolenza  Onda orograficha  Ceneri Vulcaniche






- Altitudine del aeroporto : 681 ft
- Codice IATA : OSL


ENGM - Oslo Gardermoen

ULTIMO METAR :
  • 190020Z 32006KT CAVOK 10/07 Q1024

METARs OBSOLETI :
  • 182320Z 32003KT 280V350 CAVOK 10/07 Q1024
  • 182250Z VRB01KT CAVOK 11/07 Q1024
  • 182220Z VRB02KT CAVOK 13/07 Q1024
  • 182150Z VRB02KT CAVOK 13/07 Q1024

TAF TAF ENGM
Valido dal 19 a 00 ore il 20 a 00 ore UTC


1900/1924 34005KT CAVOK



MetMap, La meteo Aeronautica in un colpo d'occhio ! - Copyright ORBIFLY Dicembre 2007 - Disclaimer

ORBIFLY MET'MAP TEAM :

Programmazione e sviluppo : Alexandra Zaïnal
Concezione : Baudouin d'Aumeries
Aiuto per la programmazione : Marc-Olivier Méhu
Supporto tecnico e logistico : Manuel Goepfert
Aiuto per la traduzione : Arnaldo La Scala

Contatto : metmap@orbifly.com




FONTI E CREDITI :

   NOAA